DW2882 Weather Reports


Display with metric or nautical units.
time (UTC)temp
F
wind
direction
speed
MPH
gust
MPH
rain 1hr
in
rain 24hr
in
rain mn
in
humidity
%
barometer
mb
20180526173407 82 51 0.0 0.0 0.00 0.00 0.00 66 1007.2
20180526171905 81 246 0.0 0.0 0.00 0.00 0.00 71 1007.5
20180526170404 81 260 0.0 0.0 0.00 0.00 0.00 70 1007.8
20180526164902 81 221 0.0 0.0 0.00 0.00 0.00 73 1007.9
20180526163402 81 211 0.0 0.0 0.00 0.00 0.00 73 1007.7
20180526161906 81 173 6.0 0.0 0.00 0.00 0.00 72 1007.9
20180526160400 81 165 5.0 0.0 0.00 0.00 0.00 72 1007.9
20180526154857 80 312 6.0 0.0 0.00 0.00 0.00 75 1008.0
20180526153353 79 236 5.0 0.0 0.00 0.00 0.00 75 1008.0
20180526151854 78 281 7.0 0.0 0.00 0.00 0.00 73 1008.2
20180526150350 78 298 6.0 0.0 0.00 0.00 0.00 74 1008.2
20180526144851 78 302 5.0 0.0 0.00 0.00 0.00 74 1008.3
20180526143347 77 281 12.0 0.0 0.00 0.00 0.00 79 1008.5
20180526141846 76 276 1.0 0.0 0.00 0.00 0.00 81 1008.6
20180526140340 75 300 0.0 0.0 0.00 0.00 0.00 81 1008.7
20180526134838 74 304 0.0 0.0 0.00 0.00 0.00 81 1008.6
20180526133338 74 309 0.0 0.0 0.00 0.00 0.00 81 1008.6
20180526131834 74 309 7.0 0.0 0.00 0.00 0.00 81 1008.4
20180526130335 74 321 13.0 0.0 0.00 0.00 0.00 80 1008.4
20180526124832 74 309 11.0 0.0 0.00 0.00 0.00 80 1008.3
20180526123330 73 288 9.0 0.0 0.00 0.00 0.00 80 1008.2
20180526121827 73 296 9.0 0.0 0.00 0.00 0.00 81 1008.2
20180526120327 71 331 2.0 0.0 0.00 0.00 0.00 84 1008.2
20180526114820 70 23 0.0 0.0 0.00 0.00 0.00 86 1008.0
20180526113321 69 292 0.0 0.0 0.00 0.00 0.00 88 1008.1
20180526111818 68 292 0.0 0.0 0.00 0.00 0.00 89 1008.0
20180526110317 67 292 0.0 0.0 0.00 0.00 0.00 90 1007.9
20180526104819 66 295 0.0 0.0 0.00 0.00 0.00 89 1007.7
20180526103316 66 294 0.0 0.0 0.00 0.00 0.00 88 1007.6
20180526101815 66 295 0.0 0.0 0.00 0.00 0.00 88 1007.3
20180526100314 66 294 0.0 0.0 0.00 0.00 0.00 88 1007.3
20180526094814 66 294 0.0 0.0 0.00 0.00 0.00 87 1007.3
20180526093315 67 294 0.0 0.0 0.00 0.00 0.00 87 1007.3
20180526091812 67 294 0.0 0.0 0.00 0.00 0.00 86 1007.2
20180526090311 66 295 0.0 0.0 0.00 0.00 0.00 86 1007.3
20180526084811 66 295 0.0 0.0 0.00 0.00 0.00 86 1007.5
20180526083309 66 295 0.0 0.0 0.00 0.00 0.00 85 1007.5
20180526081810 67 295 0.0 0.0 0.00 0.00 0.00 84 1007.3
20180526080312 67 295 0.0 0.0 0.00 0.00 0.00 84 1007.2
20180526074808 67 294 0.0 0.0 0.00 0.00 0.00 84 1007.4
20180526073309 67 294 0.0 0.0 0.00 0.00 0.00 83 1007.4
20180526071807 67 295 0.0 0.0 0.00 0.00 0.00 84 1007.4
20180526070310 67 295 0.0 0.0 0.00 0.00 0.00 83 1007.2
20180526064805 67 294 0.0 0.0 0.00 0.00 0.00 83 1007.5
20180526063303 66 294 0.0 0.0 0.00 0.00 0.00 82 1007.6
20180526061800 67 294 0.0 0.0 0.00 0.00 0.00 81 1007.7
20180526060300 67 295 0.0 0.0 0.00 0.00 0.00 81 1007.9
20180526054756 68 295 0.0 0.0 0.00 0.00 0.00 81 1008.0
20180526053259 68 294 0.0 0.0 0.00 0.00 0.00 81 1008.1
20180526051753 68 294 0.0 0.0 0.00 0.00 0.00 79 1008.1
20180526050251 69 294 0.0 0.0 0.00 0.00 0.00 78 1008.3
20180526044753 70 296 0.0 0.0 0.00 0.00 0.00 77 1008.0
20180526043248 69 294 0.0 0.0 0.00 0.00 0.00 77 1007.9
20180526041752 69 295 0.0 0.0 0.00 0.00 0.00 79 1007.9
20180526040244 69 294 0.0 0.0 0.00 0.00 0.00 77 1007.9
20180526034743 69 294 0.0 0.0 0.00 0.00 0.00 77 1008.0
20180526033243 69 295 0.0 0.0 0.00 0.00 0.00 76 1008.2
20180526031744 70 294 0.0 0.0 0.00 0.00 0.00 75 1008.4
20180526030241 70 296 0.0 0.0 0.00 0.00 0.00 74 1008.2
20180526024745 70 294 0.0 0.0 0.00 0.00 0.00 73 1008.3
20180526023243 71 294 0.0 0.0 0.00 0.00 0.00 71 1008.1
20180526021744 72 294 0.0 0.0 0.00 0.00 0.00 67 1008.0
20180526020246 73 295 0.0 0.0 0.00 0.00 0.00 64 1007.9
20180526014743 75 295 0.0 0.0 0.00 0.00 0.00 62 1008.0
20180526013244 76 294 0.0 0.0 0.00 0.00 0.00 59 1008.1
20180526011742 78 295 0.0 0.0 0.00 0.00 0.00 57 1008.2
20180526010243 79 295 0.0 0.0 0.00 0.00 0.00 54 1008.3
20180526004741 81 296 3.0 0.0 0.00 0.00 0.00 52 1008.5
20180526003237 82 295 7.0 0.0 0.00 0.00 0.00 50 1008.5
20180526001737 83 293 9.0 0.0 0.00 0.00 0.00 48 1008.3
20180526000241 83 284 6.0 0.0 0.00 0.00 0.00 45 1008.3
20180525234736 84 271 2.0 0.0 0.00 0.00 0.00 42 1008.2
20180525233239 84 311 1.0 0.0 0.00 0.00 0.00 44 1008.2
20180525231737 85 290 1.0 0.0 0.00 0.00 0.00 47 1008.0
20180525230237 85 299 4.0 0.0 0.00 0.00 0.00 44 1007.9
20180525224736 85 298 1.0 0.0 0.00 0.00 0.00 44 1007.9
20180525223234 85 175 3.0 0.0 0.00 0.00 0.00 41 1008.2
20180525221734 86 306 3.0 0.0 0.00 0.00 0.00 43 1008.4
20180525220230 86 219 2.0 0.0 0.00 0.00 0.00 44 1008.4
20180525214731 86 293 2.0 0.0 0.00 0.00 0.00 44 1008.5
20180525213228 86 301 4.0 0.0 0.00 0.00 0.00 46 1008.7
20180525211726 85 140 5.0 0.0 0.00 0.00 0.00 47 1008.7
20180525210225 85 308 5.0 0.0 0.00 0.00 0.00 38 1008.8
20180525204724 86 162 3.0 0.0 0.00 0.00 0.00 47 1008.9
20180525203224 86 144 2.0 0.0 0.00 0.00 0.00 42 1009.1
20180525201720 85 296 7.0 0.0 0.00 0.00 0.00 44 1009.6
20180525200221 85 309 8.0 0.0 0.00 0.00 0.00 42 1010.0
20180525194715 85 315 11.0 0.0 0.00 0.00 0.00 44 1010.2
20180525193212 84 172 5.0 0.0 0.00 0.00 0.00 49 1010.4
20180525191710 85 308 13.0 0.0 0.00 0.00 0.00 48 1010.7
20180525190210 85 306 3.0 0.0 0.00 0.00 0.00 50 1010.9
20180525184708 84 209 3.0 0.0 0.00 0.00 0.00 51 1011.1
20180525183203 83 312 12.0 0.0 0.00 0.00 0.00 47 1011.0
20180525181702 83 302 5.0 0.0 0.00 0.00 0.00 49 1011.2
20180525180201 83 219 6.0 0.0 0.00 0.00 0.00 53 1011.5
20180525174658 83 297 4.0 0.0 0.00 0.00 0.00 54 1011.6